UAL733 KRNO-KLAX

Flight info

Callsign UAL733
Flight time N/A
Altitude 35000
Route ZEFFR9 DARBI FRA REBRG IRNMN2
Aircraft B738/M-SDE2E3FGHIRWXY/LB1

Departure

Time 2026-04-29 19:00
Airport Reno Tahoe International Airport (KRNO)

Arrival

Time N/A
Airport Los Angeles International Airport (KLAX)
Time Latitude Longitude Altitude Speed Heading
2026-04-29 18:35 39.50643 -119.77325 4409 ft 0 kts
2026-04-29 18:48 39.50634 -119.77326 4409 ft 4 kts 10°
2026-04-29 18:49 39.50611 -119.77339 4409 ft 4 kts 51°
2026-04-29 18:49 39.50601 -119.77368 4410 ft 3 kts 89°
2026-04-29 18:49 39.50601 -119.77372 4410 ft 1 kts 90°
2026-04-29 18:53 39.50601 -119.77347 4410 ft 6 kts 90°
2026-04-29 18:54 39.50601 -119.77295 4410 ft 6 kts 90°
2026-04-29 18:54 39.50601 -119.77244 4410 ft 6 kts 90°
2026-04-29 18:54 39.50598 -119.77194 4410 ft 6 kts 96°
2026-04-29 18:54 39.50594 -119.77133 4410 ft 8 kts 92°
2026-04-29 18:55 39.50630 -119.77070 4410 ft 11 kts
2026-04-29 18:55 39.50713 -119.77068 4410 ft 13 kts
2026-04-29 18:55 39.50803 -119.77065 4409 ft 13 kts
2026-04-29 18:55 39.50891 -119.77066 4410 ft 12 kts 359°
2026-04-29 18:56 39.50977 -119.77066 4411 ft 13 kts
2026-04-29 18:56 39.51067 -119.77064 4411 ft 13 kts 359°
2026-04-29 18:56 39.51156 -119.77063 4410 ft 13 kts 358°
2026-04-29 18:56 39.51242 -119.77065 4410 ft 12 kts
2026-04-29 18:57 39.51327 -119.77065 4410 ft 12 kts
2026-04-29 18:57 39.51348 -119.77059 4410 ft 0 kts 20°
2026-04-29 18:57 39.51349 -119.77058 4410 ft 1 kts 22°
2026-04-29 18:57 39.51367 -119.77035 4410 ft 6 kts 59°
2026-04-29 18:58 39.51374 -119.76972 4409 ft 8 kts 88°
2026-04-29 18:58 39.51375 -119.76895 4408 ft 9 kts 88°
2026-04-29 18:58 39.51377 -119.76809 4406 ft 10 kts 88°
2026-04-29 18:58 39.51378 -119.76706 4402 ft 10 kts 94°
2026-04-29 18:59 39.51330 -119.76673 4402 ft 9 kts 182°
2026-04-29 18:59 39.51232 -119.76674 4403 ft 34 kts 180°
2026-04-29 18:59 39.50745 -119.76675 4408 ft 105 kts 180°
2026-04-29 18:59 39.49797 -119.76678 4412 ft 165 kts 180°
2026-04-29 19:00 39.48572 -119.76708 4964 ft 178 kts 181°
2026-04-29 19:00 39.47305 -119.76739 5785 ft 186 kts 181°
2026-04-29 19:00 39.46013 -119.76777 6633 ft 184 kts 181°
2026-04-29 19:00 39.44728 -119.76834 7170 ft 191 kts 182°
2026-04-29 19:01 39.43313 -119.76905 7350 ft 213 kts 182°
2026-04-29 19:01 39.41771 -119.76950 7487 ft 232 kts 180°
2026-04-29 19:01 39.40084 -119.76954 7610 ft 253 kts 180°
2026-04-29 19:01 39.38246 -119.76955 7806 ft 275 kts 180°
2026-04-29 19:02 39.36301 -119.76959 8342 ft 283 kts 180°
2026-04-29 19:02 39.34990 -119.76962 8798 ft 285 kts 180°
2026-04-29 19:02 39.32329 -119.76970 9795 ft 287 kts 180°
2026-04-29 19:02 39.30310 -119.76937 10369 ft 297 kts 179°
2026-04-29 19:03 39.28165 -119.76857 10535 ft 320 kts 178°
2026-04-29 19:03 39.25870 -119.76761 10723 ft 339 kts 178°
2026-04-29 19:03 39.23475 -119.76661 11215 ft 348 kts 178°
2026-04-29 19:03 39.21036 -119.76562 11842 ft 353 kts 178°
2026-04-29 19:04 39.18569 -119.76465 12508 ft 356 kts 179°
2026-04-29 19:04 39.16918 -119.76402 12960 ft 359 kts 179°
2026-04-29 19:04 39.14401 -119.76305 13648 ft 363 kts 179°
2026-04-29 19:04 39.11863 -119.76209 14330 ft 367 kts 179°
2026-04-29 19:05 39.09282 -119.76112 14906 ft 372 kts 179°
2026-04-29 19:05 39.06674 -119.76014 15508 ft 378 kts 179°
2026-04-29 19:05 39.04027 -119.75914 16097 ft 383 kts 179°
2026-04-29 19:05 39.01341 -119.75814 16698 ft 389 kts 179°
2026-04-29 19:06 38.98615 -119.75712 17262 ft 395 kts 180°
2026-04-29 19:06 38.95848 -119.75609 17840 ft 401 kts 180°
2026-04-29 19:06 38.90204 -119.75402 18923 ft 411 kts 180°